(38) Leda
ephemeris date magn radius delta ra dec elong phase
Opposition10 Aug 202612.73.071 AU2.059 AU21h15m-11°48'176.1°1.3°
Today5 Sep 202613.23.048 AU2.132 AU20h55m-12°45'150.2°9.5°
(38) Leda - 2026-09-05
astro.vanbuitenen.nl


 
-1 year
-1 month
-1 day
Now
+1 day
+1 month
+1 year

The interactive orbit chart above shows the body's path through the solar system and its position at the given date. Green and blue lines are shown perpendicular to the ecliptic plane: Green if the path is above the ecliptic plane, blue if it is below. (Left-click and drag to rotate the view; Right-click and drag to move the view; Use scroll wheel to zoom in our out.)

The orbital elements of Leda are:

            e (Eccentricity)                : 0.1508913
            a (Semimajor axis)              : 2.7426246
            i (Inclination)                 : 6.95159
            Ω (Longitude of ascending node) : 295.49317
            ω (Argument of perihelion)      : 169.82713
            M (Mean anomaly)                : 209.10244
            Epoch                           : 2026 Jun 09

            L (Longitude of perihelion)     : 285.39354
            B (Latitude of perihelion)      : 1.22486
            P (Orbital period in years)     : 4.54            
        

The light curve chart below shows the estimated development of the minor planet's magnitude.


The all-sky chart below shows the path of the minor planet over the same period as the light curve. The current position is marked yellow.





The following chart shows the path of the minor planet in the next few days. The field of view is optimized for (~10x50) binoculars and finderscopes.




Ephemerides:
Date       Time       RA (2000)    DEC (2000)    delta   radius  elong  phase   PA    magn
2026-09-05 00:00 UT   20 55 03.6   -12 45 17     2.132    3.048  150.2    9.5    82   13.2 
2026-09-05 21:04 UT   20 54 30.7   -12 46 54     2.137    3.048  149.2    9.7    82   13.2 
2026-09-06 00:00 UT   20 54 26.2   -12 47 07     2.138    3.047  149.1    9.8    82   13.2 
2026-09-07 00:00 UT   20 53 50.0   -12 48 55     2.145    3.046  148.0   10.1    81   13.2 
2026-09-08 00:00 UT   20 53 15.0   -12 50 39     2.152    3.045  146.9   10.4    81   13.2 
2026-09-09 00:00 UT   20 52 41.1   -12 52 20     2.159    3.045  145.8   10.7    81   13.3 
2026-09-10 00:00 UT   20 52 08.5   -12 53 58     2.166    3.044  144.7   11.0    81   13.3 
2026-09-11 00:00 UT   20 51 37.2   -12 55 33     2.173    3.043  143.6   11.3    80   13.3 
2026-09-12 00:00 UT   20 51 07.1   -12 57 04     2.181    3.042  142.5   11.6    80   13.3 
2026-09-13 00:00 UT   20 50 38.4   -12 58 31     2.189    3.041  141.4   11.9    80   13.3 
2026-09-14 00:00 UT   20 50 11.0   -12 59 54     2.197    3.040  140.3   12.2    80   13.4 
2026-09-15 00:00 UT   20 49 44.9   -13 01 14     2.205    3.039  139.2   12.5    80   13.4 
2026-09-16 00:00 UT   20 49 20.1   -13 02 30     2.214    3.038  138.2   12.8    80   13.4 
2026-09-17 00:00 UT   20 48 56.8   -13 03 42     2.222    3.037  137.1   13.0    79   13.4 
2026-09-18 00:00 UT   20 48 34.8   -13 04 50     2.231    3.036  136.0   13.3    79   13.4 
2026-09-19 00:00 UT   20 48 14.2   -13 05 54     2.240    3.035  135.0   13.5    79   13.4 
2026-09-20 00:00 UT   20 47 55.0   -13 06 53     2.249    3.034  133.9   13.8    79   13.5 
2026-09-21 00:00 UT   20 47 37.3   -13 07 49     2.259    3.033  132.9   14.0    79   13.5 
2026-09-22 00:00 UT   20 47 20.9   -13 08 40     2.268    3.032  131.9   14.3    79   13.5 
2026-09-23 00:00 UT   20 47 06.0   -13 09 27     2.278    3.031  130.8   14.5    79   13.5 
2026-09-24 00:00 UT   20 46 52.4   -13 10 10     2.288    3.030  129.8   14.7    78   13.5 
2026-09-25 00:00 UT   20 46 40.3   -13 10 49     2.298    3.029  128.8   15.0    78   13.5 
2026-09-26 00:00 UT   20 46 29.7   -13 11 23     2.308    3.028  127.7   15.2    78   13.6 
2026-09-27 00:00 UT   20 46 20.4   -13 11 52     2.318    3.027  126.7   15.4    78   13.6 
2026-09-28 00:00 UT   20 46 12.6   -13 12 18     2.329    3.026  125.7   15.6    78   13.6 
2026-09-29 00:00 UT   20 46 06.2   -13 12 39     2.340    3.024  124.7   15.8    78   13.6 
2026-09-30 00:00 UT   20 46 01.2   -13 12 55     2.350    3.023  123.7   16.0    78   13.6 
2026-10-01 00:00 UT   20 45 57.7   -13 13 07     2.361    3.022  122.7   16.2    78   13.6 
2026-10-02 00:00 UT   20 45 55.5   -13 13 14     2.372    3.021  121.7   16.4    78   13.7 
2026-10-03 00:00 UT   20 45 54.8   -13 13 17     2.383    3.020  120.8   16.5    77   13.7 
2026-10-04 00:00 UT   20 45 55.4   -13 13 15     2.395    3.019  119.8   16.7    77   13.7 
2026-10-05 00:00 UT   20 45 57.5   -13 13 09     2.406    3.018  118.8   16.9    77   13.7 


    Terminology:
            
    delta:  distance between minor planet and earth in AU
    radius: distance between minor planet and sun in AU
    magn:   magnitude (brightness) estimate    
    ra:     right ascension in hours (24h = 360deg)
    dec:    declination in degrees
    elong:  elongation in degrees (angle sun-earth-minor planet)    
    phase:  phase angle in degrees (angle sun-minor planet-earth)        
    AU:     Astronomical Unit (mean distance between earth and sun: 149597870.7 km
    

Orbital elements provided by the MPC (Minor Planet Center).
Calculations by a modified version of AAPlus, a C# implementation of the AA+ project by PJ Naughter from the algorithms presented in the book "Astronomical Algorithms" by Jean Meeus.
NGC2000 dso catalog and star labels from VizieR as provided by the Strasbourg astronomical Data Center.
Tycho2 catalog from the ESO archive.